Regional Weather Roundup
Issued by NWS Sioux Falls, SD

Home | Current Version | Previous Version | Graphics & Text | Print | Product List | Glossary On
Versions: 1 2 3 4 5 6 7 8 9 10 11 12 13 14 15 16 17 18 19 20 21 22 23 24 25 26 27 28 29 30 31 32 33 34 35 36 37 38 39 40 41 42 43 44 45 46 47 48 49 50
411
ASUS43 KFSD 251102
RWRFSD

WEATHER ROUNDUP FOR SE SOUTH DAKOTA/SW MINNESOTA/NW IOWA
NATIONAL WEATHER SERVICE SIOUX FALLS SD
500 AM CST SAT NOV 25 2017

NOTE: "FAIR" INDICATES FEW OR NO CLOUDS BELOW 12,000 FEET WITH NO
SIGNIFICANT WEATHER AND OR OBSTRUCTIONS TO VISIBILITY.


SDZ038>040-050-052>070-251200-
SOUTHEAST SOUTH DAKOTA

CITY           SKY/WX    TMP DP  RH WIND       PRES   REMARKS
BROOKINGS      CLEAR     28  25  88 W3        30.00R
CHAMBERLAIN    CLEAR     32  31  96 CALM      30.07R
HURON          CLEAR     26  24  92 N5        30.04R WCI  20
MADISON        FAIR      32  32 100 W10       30.00R WCI  24
MITCHELL       CLOUDY    34  30  85 W12       30.05R WCI  25
SIOUX FALLS    CLEAR     33  29  85 W7        30.01R WCI  27
WINNER         FAIR      36  29  75 SW7       30.08R
YANKTON        CLOUDY    38  32  79 SW5       30.05R
$$

MNZ071-072-080-081-089-090-097-098-251200-
SOUTHWEST MINNESOTA

CITY           SKY/WX    TMP DP  RH WIND       PRES   REMARKS
FAIRMONT       CLEAR     35  29  78 W12       29.97R WCI  27
JACKSON        CLEAR     34  30  86 W10       29.97S WCI  26
MARSHALL       CLEAR     35  29  78 W10       29.99R WCI  27
MONTEVIDEO     CLEAR     30  27  86 NW5       29.98R WCI  25
PIPESTONE      CLEAR     32  28  86 NW7       29.98R WCI  26
REDWOOD FALLS  CLEAR     34  28  79 W10       29.96R WCI  26
WINDOM         CLEAR     30  18  59 W8        29.97R WCI  23
WORTHINGTON    CLEAR     30  27  88 W12       29.99R WCI  20
$$

IAZ001>003-012>014-020>022-031-032-NEZ013-014-SDZ071-251200-
NORTHWEST IOWA

CITY           SKY/WX    TMP DP  RH WIND       PRES   REMARKS
CHEROKEE       CLEAR     32  30  92 CALM      30.02R
DENISON        CLEAR     34  30  86 CALM      30.05R
ESTHERVILLE    CLEAR     31  29  92 NW10      29.98R WCI  22
LE MARS        CLEAR     27  27 100 S5        30.04R WCI  21
ORANGE CITY    CLEAR     30  30 100 W6        30.02R WCI  24
SHELDON        CLEAR     30  27  86 W6        30.00R WCI  24
SIOUX CITY     CLEAR     29  28  96 W3        30.05R
SPENCER        CLEAR     27  25  92 W9        30.00R WCI  18
STORM LAKE     CLEAR     30  28  93 W12       30.01R WCI  21
$$

ABBREVIATIONS USED IN REMARKS
   TC - TEMPERATURE IN CELSIUS
  WCI - WIND CHILL INDEX
   HX - HEAT INDEX
  VSB - VISIBILITY





USA.gov is the U.S. government's official web portal to all federal, state and local government web resources and services.